DL1NER Weather Reports


time (UTC)temp
F
wind
direction
speed
knots
gust
knots
rain 1hr
in
rain 24hr
in
rain mn
in
humidity
%
barometer
mb
20260902060011 53 69 1.7 3.5 0.00 0.00 0.00 92 1021.1
20260902055012 53 68 1.7 3.5 0.00 0.00 0.00 92 1021.2
20260902054012 52 67 0.0 1.7 0.00 0.00 0.00 92 1021.3
20260902053011 51 67 0.0 0.9 0.00 0.00 0.00 92 1021.2
20260902052011 51 222 0.0 0.0 0.00 0.00 0.00 92 1021.2
20260902051010 51 222 0.0 0.0 0.00 0.00 0.00 91 1021.2
20260902050011 51 259 0.0 0.0 0.00 0.00 0.00 91 1021.2
20260902045011 51 259 0.0 0.0 0.00 0.00 0.00 91 1021.1
20260902044011 51 259 0.0 0.0 0.00 0.00 0.00 91 1021.1
20260902043020 51 259 0.0 0.0 0.00 0.00 0.00 90 1021.1
20260902042010 51 259 0.0 0.0 0.00 0.00 0.00 89 1021.1
20260902041010 51 259 0.0 0.0 0.00 0.00 0.00 89 1021.1
20260902040011 51 259 0.0 0.0 0.00 0.00 0.00 89 1021.1
20260902035015 51 259 0.0 0.0 0.00 0.00 0.00 89 1021.1
20260902034014 51 259 0.0 0.0 0.00 0.00 0.00 89 1021.2
20260902033014 51 259 0.0 0.0 0.00 0.00 0.00 89 1021.2
20260902032015 51 259 0.0 0.0 0.00 0.00 0.00 88 1021.1
20260902031015 51 259 0.0 0.0 0.00 0.00 0.00 88 1021.1
20260902030014 52 259 0.0 0.0 0.00 0.00 0.00 88 1021.2
20260902025014 52 259 0.0 0.0 0.00 0.00 0.00 88 1021.2
20260902024014 52 259 0.0 0.0 0.00 0.00 0.00 88 1021.3
20260902023014 52 259 0.0 0.0 0.00 0.00 0.00 86 1021.2
20260902022014 52 259 0.0 0.0 0.00 0.00 0.00 85 1021.3
20260902021014 52 259 0.0 0.0 0.00 0.00 0.00 85 1021.4
20260902020014 53 259 0.0 0.0 0.00 0.00 0.00 85 1021.3
20260902015014 53 259 0.0 0.0 0.00 0.00 0.00 85 1021.4
20260902014014 53 259 0.0 0.0 0.00 0.00 0.00 84 1021.3
20260902013013 53 259 0.0 0.0 0.00 0.00 0.00 83 1021.3
20260902012014 53 259 0.0 0.0 0.00 0.00 0.00 83 1021.3
20260902011014 53 259 0.0 0.0 0.00 0.00 0.00 81 1021.2
20260902010014 53 259 0.0 0.0 0.00 0.00 0.00 81 1021.4
20260902005013 53 259 0.0 0.0 0.00 0.00 0.00 79 1021.3
20260902004013 53 259 0.0 0.0 0.00 0.00 0.00 77 1021.3
20260902003013 53 259 0.0 0.0 0.00 0.00 0.00 77 1021.3
20260902002013 54 259 0.0 0.0 0.00 0.00 0.00 76 1021.3
20260902001013 54 259 0.0 0.0 0.00 0.00 0.00 76 1021.4
20260902000013 54 259 0.0 0.0 0.00 0.00 0.00 75 1021.4
20260901235013 55 259 0.0 0.0 0.00 0.00 0.00 75 1021.4
20260901234013 55 259 0.0 0.0 0.00 0.00 0.00 75 1021.3
20260901233013 55 259 0.0 0.0 0.00 0.00 0.00 74 1021.3
20260901232013 55 259 0.0 0.0 0.00 0.00 0.00 74 1021.3
20260901231013 56 259 0.0 0.0 0.00 0.00 0.00 73 1021.3
20260901230013 56 259 0.0 0.0 0.00 0.00 0.00 73 1021.3
20260901225013 56 259 0.0 0.0 0.00 0.00 0.00 73 1021.4
20260901224013 56 259 0.0 0.0 0.00 0.00 0.00 72 1021.3
20260901223013 56 259 0.0 0.0 0.00 0.00 0.00 72 1021.2
20260901222012 57 259 0.0 0.0 0.00 0.00 0.00 71 1021.2
20260901221013 57 259 0.0 0.0 0.00 0.00 0.00 71 1021.3
20260901220013 57 259 0.0 0.0 0.00 0.00 0.00 71 1021.2
20260901215013 57 259 0.0 0.0 0.00 0.00 0.00 71 1021.3
20260901214012 58 259 0.0 0.0 0.00 0.00 0.00 70 1021.2
20260901213012 58 259 0.0 0.0 0.00 0.00 0.00 69 1021.2
20260901212012 58 259 0.0 0.0 0.00 0.00 0.00 69 1021.3
20260901211012 59 259 0.0 0.0 0.00 0.00 0.00 69 1021.2
20260901210012 59 259 0.0 0.0 0.00 0.00 0.00 69 1021.2
20260901205013 59 259 0.0 0.9 0.00 0.00 0.00 68 1021.2
20260901204012 60 259 0.9 2.6 0.00 0.00 0.00 68 1021.1
20260901203012 60 259 0.0 0.0 0.00 0.00 0.00 67 1021.1
20260901202012 60 259 0.0 0.0 0.00 0.00 0.00 67 1021.1
20260901201012 60 259 0.0 0.0 0.00 0.00 0.00 67 1021.1
20260901200013 61 259 0.0 0.0 0.00 0.00 0.00 66 1021.1
20260901195013 62 259 0.9 2.6 0.00 0.00 0.00 65 1021.0
20260901194012 62 259 1.7 3.5 0.00 0.00 0.00 63 1021.0
20260901193013 63 259 1.7 2.6 0.00 0.00 0.00 62 1020.9
20260901192011 63 259 0.0 1.7 0.00 0.00 0.00 61 1020.8
20260901191012 63 259 0.0 2.6 0.00 0.00 0.00 60 1020.8
20260901190011 64 259 0.9 1.7 0.00 0.00 0.00 59 1020.5
20260901185013 64 259 0.9 1.7 0.00 0.00 0.00 59 1020.5
20260901184012 65 259 0.0 0.0 0.00 0.00 0.00 60 1020.5
20260901183011 65 259 0.0 0.0 0.00 0.00 0.00 57 1020.4
20260901182012 65 259 0.0 0.0 0.00 0.00 0.00 56 1020.4
20260901181012 66 259 0.9 1.7 0.00 0.00 0.00 55 1020.2
20260901180011 66 259 0.9 1.7 0.00 0.00 0.00 55 1020.3
20260901175012 67 259 0.9 1.7 0.00 0.00 0.00 54 1020.1
20260901174017 68 259 1.7 3.5 0.00 0.00 0.00 54 1020.0
20260901173013 68 259 1.7 3.5 0.00 0.00 0.00 54 1019.9
20260901171012 69 250 2.6 5.2 0.00 0.00 0.00 53 1019.7
20260901170012 70 300 2.6 6.1 0.00 0.00 0.00 53 1019.9
20260901165012 70 258 3.5 7.8 0.00 0.00 0.00 53 1019.9
20260901164012 71 270 3.5 9.6 0.00 0.00 0.00 52 1019.9
20260901163012 71 275 4.3 9.6 0.00 0.00 0.00 53 1020.0
20260901162013 71 273 2.6 6.1 0.00 0.00 0.00 53 1020.0
20260901161012 71 298 2.6 6.1 0.00 0.00 0.00 53 1020.1
20260901160012 71 271 3.5 8.7 0.00 0.00 0.00 53 1020.2
20260901155012 72 286 2.6 7.0 0.00 0.00 0.00 53 1020.1
20260901154012 72 269 3.5 7.8 0.00 0.00 0.00 51 1020.0
20260901153012 72 314 2.6 6.1 0.00 0.00 0.00 53 1020.0
20260901152012 71 317 2.6 6.1 0.00 0.00 0.00 53 1020.1
20260901151012 72 311 2.6 7.0 0.00 0.00 0.00 52 1020.1
20260901150013 73 298 3.5 7.8 0.00 0.00 0.00 52 1020.0
20260901145012 73 340 2.6 7.8 0.00 0.00 0.00 51 1020.0
20260901144012 72 293 0.9 3.5 0.00 0.00 0.00 51 1020.0
20260901143012 71 293 2.6 6.1 0.00 0.00 0.00 51 1020.0
20260901142012 71 257 1.7 7.0 0.00 0.00 0.00 53 1020.3
20260901141012 71 220 1.7 4.3 0.00 0.00 0.00 53 1020.3
20260901140012 71 260 1.7 4.3 0.00 0.00 0.00 54 1020.4
20260901135012 71 259 3.5 7.0 0.00 0.00 0.00 54 1020.5
20260901134012 72 259 1.7 6.1 0.00 0.00 0.00 54 1020.5
20260901133011 72 288 3.5 8.7 0.00 0.00 0.00 53 1020.6
20260901132012 73 273 3.5 7.8 0.00 0.00 0.00 52 1020.5
20260901131012 74 208 3.5 9.6 0.00 0.00 0.00 52 1020.5
20260901130011 74 286 2.6 7.0 0.00 0.00 0.00 52 1020.6
20260901125012 75 232 5.2 8.7 0.00 0.00 0.00 49 1020.7
20260901124011 75 199 4.3 9.6 0.00 0.00 0.00 50 1020.7
20260901123013 74 216 4.3 10.4 0.00 0.00 0.00 50 1020.7
20260901122011 73 265 3.5 8.7 0.00 0.00 0.00 52 1020.7
20260901121012 72 261 2.6 7.0 0.00 0.00 0.00 53 1020.9
20260901120012 72 212 3.5 10.4 0.00 0.00 0.00 55 1021.0
20260901115011 71 170 3.5 9.6 0.00 0.00 0.00 54 1021.0
20260901114012 72 250 4.3 10.4 0.00 0.00 0.00 54 1021.0
20260901113012 71 263 3.5 8.7 0.00 0.00 0.00 56 1021.1
20260901112011 70 217 5.2 9.6 0.00 0.00 0.00 56 1021.1
20260901111012 71 269 4.3 10.4 0.00 0.00 0.00 54 1021.2
20260901105011 71 232 5.2 12.2 0.00 0.00 0.00 52 1021.2
20260901104012 71 232 5.2 12.2 0.00 0.00 0.00 52 1021.2
20260901103010 71 221 6.1 13.9 0.00 0.00 0.00 56 1021.1
20260901102012 71 264 6.1 12.2 0.00 0.00 0.00 55 1021.2
20260901101010 70 275 4.3 13.9 0.00 0.00 0.00 55 1021.1
20260901100011 70 274 6.1 12.2 0.00 0.00 0.00 59 1021.2
20260901095010 69 272 5.2 13.0 0.00 0.00 0.00 56 1021.2
20260901094011 69 256 5.2 14.8 0.00 0.00 0.00 59 1021.2
20260901093011 69 282 5.2 13.0 0.00 0.00 0.00 57 1021.3
20260901092010 69 306 6.1 13.9 0.00 0.00 0.00 59 1021.2
20260901091010 69 261 4.3 11.3 0.00 0.00 0.00 60 1021.3
20260901090011 68 242 5.2 12.2 0.00 0.00 0.00 62 1021.2
20260901085017 67 256 7.0 11.3 0.00 0.00 0.00 63 1021.3
20260901084011 67 167 4.3 12.2 0.00 0.00 0.00 63 1021.3
20260901083010 66 219 3.5 10.4 0.00 0.00 0.00 64 1021.3
20260901082011 66 219 2.6 10.4 0.00 0.00 0.00 64 1021.3
20260901081010 65 226 4.3 8.7 0.00 0.00 0.00 67 1021.2
20260901080011 65 226 6.1 8.7 0.00 0.00 0.00 67 1021.2
20260901075009 64 259 2.6 7.8 0.00 0.00 0.00 68 1021.2
20260901074010 64 259 2.6 7.8 0.00 0.00 0.00 68 1021.2
20260901073010 63 175 1.7 7.0 0.00 0.00 0.00 72 1020.9
20260901072011 63 175 1.7 7.0 0.00 0.00 0.00 72 1020.9
20260901071010 62 252 1.7 5.2 0.00 0.00 0.00 74 1020.9
20260901070010 60 227 0.9 5.2 0.00 0.00 0.00 74 1021.0
20260901065010 60 204 0.9 3.5 0.00 0.00 0.00 77 1021.0
20260901064010 59 204 1.7 3.5 0.00 0.00 0.00 79 1021.0
20260901063011 58 199 0.9 4.3 0.00 0.00 0.00 86 1021.0
20260901062010 57 200 0.9 4.3 0.00 0.00 0.00 90 1021.0
20260901061009 57 198 0.0 1.7 0.00 0.00 0.00 90 1020.9